This demonstration page uses our WeatherBlox Daily Observations layout. Learn more.

Left ArrowRight Arrow

31.31129, -92.44514

Hourly Observations for April 21, 2018

Temp ( °F °C ) Dew Point ( °F °C ) Humidity (%) Winds ( mph kmh ) Pressure ( in mb ) Visibility ( mi km ) Precip ( " mm )
12:53 am 00:53 Clear 54 12.2 46 7.8 75 75 Calm 30.14 1021 10 16 0.00 0.00
1:53 am 01:53 Clear 52 11.1 47 8.3 83 83 ENE 3 6 30.13 1020 10 16 0.00 0.00
2:53 am 02:53 Clear 52 11.1 47 8.3 83 83 Calm 30.11 1020 10 16 0.00 0.00
3:53 am 03:53 Clear 49 9.4 46 7.8 90 90 Calm 30.12 1020 10 16 0.00 0.00
4:53 am 04:53 Clear 51 10.6 48 8.9 89 89 Calm 30.11 1020 10 16 0.00 0.00
5:53 am 05:53 Clear 51 10.6 48 8.9 89 89 ENE 3 6 30.10 1019 9 14 0.00 0.00
6:53 am 06:53 Sunny 51 10.6 48 8.9 89 89 ENE 5 7 30.10 1019 8 13 0.00 0.00
7:53 am 07:53 Sunny 55 12.8 50 10 83 83 E 5 7 30.11 1020 8 13 0.00 0.00
8:53 am 08:53 Mostly Sunny 56 13.3 51 10.6 84 84 ENE 3 6 30.12 1020 8 13 0.00 0.00
9:53 am 09:53 Sunny 63 17.2 52 11.1 68 68 ESE 6 9 30.14 1021 8 13 0.00 0.00
10:53 am 10:53 Sunny 66 18.9 52 11.1 61 61 SSE 10 17 30.13 1020 10 16 0.00 0.00
11:53 am 11:53 Sunny 70 21.1 51 10.6 51 51 SE 12 19 30.11 1020 10 16 0.00 0.00
12:53 pm 12:53 Sunny 72 22.2 52 11.1 50 50 SE 13 20 30.07 1018 10 16 0.00 0.00
1:53 pm 13:53 Sunny 75 23.9 56 13.3 52 52 SSE 9 15 30.05 1018 9 14 0.00 0.00
2:53 pm 14:53 Sunny 75 23.9 57 13.9 54 54 ESE 12 19 30.01 1016 9 14 0.00 0.00
3:53 pm 15:53 Mostly Cloudy 74 23.3 59 15 60 60 SE 10 17 30.00 1016 8 13 0.00 0.00
4:53 pm 16:53 Mostly Cloudy 77 25 60 15.6 56 56 SSE 13 20 30.00 1016 8 13 0.00 0.00
5:53 pm 17:53 Cloudy 74 23.3 60 15.6 62 62 SSE 8 13 29.99 1016 8 13 0.00 0.00
6:53 pm 18:53 Mostly Sunny 73 22.8 61 16.1 66 66 SE 12 19 29.96 1015 8 13 0.00 0.00
7:53 pm 19:53 Mostly Cloudy 71 21.7 61 16.1 71 71 SE 9 15 29.96 1015 9 14 0.00 0.03
8:53 pm 20:53 Mostly Cloudy 70 21.1 61 16.1 73 73 SE 12 19 29.96 1014 10 16 0.00 0.03
9:53 pm 21:53 Mostly Cloudy 70 21.1 60 15.6 71 71 SSE 8 13 29.98 1015 10 16 0.00 0.00
10:53 pm 22:53 Mostly Clear 69 20.6 60 15.6 73 73 SSE 14 22 29.96 1015 10 16 0.00 0.00
11:53 pm 23:53 Clear 69 20.6 60 15.6 73 73 SSE 7 11 29.93 1014 10 16 0.00 0.00

Powered by AerisWeather